Wind_Speed
44 42 42 43 43 41 44 42 43 43 39 38 38 36 36 36 35 36 37 35 35 35 35 35 35 34 32 31 29 31 31 31 32 31 28 30 31 26
43 42 42 42 42 44 45 45 46 43 43 43 40 39 38 38 37 37 37 38 39 39 40 41 38 35 34 32 34 35 36 34 34 34 31 34 30 26
46 45 44 44 44 43 44 43 42 42 40 37 38 38 38 38 37 37 38 37 38 40 41 40 36 34 33 34 34 37 36 38 38 36 39 35 30 25
45 48 47 46 45 44 44 43 42 41 41 38 37 35 34 33 33 34 35 37 37 37 40 39 41 41 36 43 41 43 41 42 40 40 38 42 35 30
43 54 47 48 48 48 47 46 46 46 43 42 42 42 40 40 41 39 36 36 38 39 38 39 42 42 41 42 40 44 44 43 45 42 45 38 34 31
43 63 48 44 52 44 50 54 50 48 45 44 46 49 48 45 45 44 44 42 40 41 42 38 43 46 45 46 46 45 50 46 46 45 48 39 35 32
32 42 55 55 57 57 66 42 42 49 41 55 59 53 57 56 52 45 45 48 45 46 45 45 44 49 52 46 51 49 50 47 51 49 40 42 38 36
33 28 38 42 38 33 70 59 51 62 58 51 49 54 43 41 41 47 45 52 49 44 43 39 45 51 52 52 59 54 54 52 50 38 38 44 44 37
34 37 30 32 34 33 36 41 41 38 32 36 38 45 38 45 31 33 38 40 47 40 40 44 45 44 39 40 45 52 55 56 42 41 45 42 39 37
30 33 29 31 34 29 31 34 37 36 39 38 43 30 32 32 31 35 40 36 37 42 38 40 36 37 39 42 44 45 43 48 50 44 40 36 40 40
39 38 37 36 36 37 42 38 37 36 41 35 39 37 37 39 41 40 43 41 45 43 43 46 35 38 38 35 34 34 37 42 44 42 43 45 41 39
34 35 35 37 39 40 41 41 41 40 40 39 41 41 42 41 41 42 40 39 38 38 34 38 35 39 36 37 36 29 32 31 36 40 40 37 40 39
37 38 40 40 41 39 40 40 39 40 39 40 40 42 44 40 40 40 43 37 41 37 29 32 32 33 34 34 32 34 33 30 30 30 29 29 35 43
31 33 37 39 40 43 45 44 42 42 42 43 46 43 47 44 45 45 44 41 42 39 34 38 39 39 36 38 36 29 30 33 35 33 31 32 35 34
38 37 36 36 35 34 35 36 43 44 42 42 40 39 39 41 44 48 41 38 46 44 40 39 38 40 40 39 36 35 31 32 34 39 33 36 35 38
42 42 43 43 41 38 36 34 33 36 42 43 40 37 39 43 43 42 47 41 36 35 39 41 40 40 38 38 39 36 31 33 31 34 36 35 34 38
47 47 46 46 44 43 42 40 38 36 35 35 41 45 43 36 34 35 37 43 46 43 45 35 38 41 39 42 41 39 38 38 31 31 33 37 39 40
51 51 48 46 46 46 44 42 43 41 39 38 38 40 42 43 41 37 35 31 34 42 35 37 45 45 41 37 34 34 31 31 33 36 34 33 33 33
57 54 51 48 45 44 43 44 44 44 44 43 41 40 42 43 42 40 43 36 37 30 31 32 34 35 35 37 35 35 34 34 31 29 28 28 25 24
61 56 51 48 46 44 42 42 43 44 42 44 42 41 40 44 40 39 37 40 38 35 35 39 36 35 31 33 34 34 32 27 24 19 17 16 17 19
57 58 52 47 45 45 43 42 42 42 43 43 42 42 39 40 37 38 40 42 38 36 36 33 32 33 34 32 28 24 20 16 15 13 13 14 15 16
49 52 51 48 45 45 45 43 41 43 42 40 37 34 34 35 35 36 35 32 34 33 31 32 33 29 23 19 19 18 17 15 13 14 16 17 18 19
44 45 45 44 44 44 45 43 42 41 36 34 30 31 33 31 34 34 34 29 32 35 31 26 24 22 21 18 14 13 14 16 18 18 18 19 20 21
Wind_Direction
235 237 239 239 239 243 247 247 249 250 247 245 244 244 245 245 245 246 248 248 252 254 255 255 255 257 258 260 261 272 269 279 273 276 277 285 284 281
237 238 238 240 242 243 242 242 247 249 252 249 245 247 245 245 247 249 252 254 254 255 257 261 262 262 263 266 269 264 266 270 270 273 272 279 276 277
233 234 236 238 240 243 245 245 244 246 247 247 245 245 246 245 246 249 250 253 255 256 260 261 263 266 264 260 261 263 265 267 270 275 273 272 271 270
230 234 233 235 237 239 241 244 245 246 248 247 249 246 245 243 244 244 246 248 250 252 255 258 255 256 256 264 266 266 268 269 267 271 274 277 267 267
233 229 237 233 235 238 244 243 246 248 250 250 253 249 248 244 244 247 250 253 253 258 256 258 257 263 262 259 262 265 266 273 270 269 269 263 256 260
250 234 242 230 234 235 240 242 245 249 243 251 252 257 254 253 252 252 255 254 256 258 259 259 257 264 261 265 264 262 267 268 270 272 268 264 254 256
251 248 241 243 242 242 236 245 256 246 255 254 245 247 255 253 253 254 260 261 259 259 254 254 257 259 265 268 266 262 268 266 265 262 253 256 248 254
252 245 235 240 248 257 240 248 257 254 254 255 251 250 258 265 255 251 256 260 259 257 254 262 259 256 256 264 265 270 271 272 267 257 250 254 247 251
249 239 235 237 240 242 231 239 238 240 246 252 248 250 265 253 256 252 257 259 264 255 257 265 265 258 266 272 267 261 271 263 262 264 266 246 249 253
235 241 234 230 235 243 242 243 244 247 252 245 242 251 236 239 234 249 256 257 257 256 256 265 267 262 267 265 265 263 261 265 263 252 245 246 253 250
242 248 250 242 245 242 245 247 245 248 241 239 239 242 244 250 246 261 261 257 260 263 261 266 262 266 273 267 262 262 264 262 255 255 256 245 242 245
240 237 237 238 238 240 235 248 245 242 245 247 250 250 254 258 253 252 254 253 261 264 260 262 268 265 266 267 260 270 274 265 259 258 252 249 243 240
247 247 246 245 244 244 244 246 249 245 249 244 245 245 252 249 249 248 257 251 259 266 263 261 261 260 259 262 267 272 269 261 258 264 255 260 261 248
242 244 248 248 248 250 251 250 250 249 248 243 250 249 245 245 244 255 257 256 253 261 255 257 258 257 259 260 263 268 262 256 254 260 255 255 255 257
240 240 242 244 247 246 249 252 249 248 249 248 249 253 252 251 245 247 254 250 263 257 254 264 254 259 260 267 255 261 265 261 268 270 257 267 258 258
249 245 244 243 244 246 247 248 250 251 250 251 251 250 250 249 246 246 252 253 253 261 265 251 256 257 269 260 265 269 266 256 276 271 266 261 258 263
249 249 246 245 244 244 245 246 246 247 250 250 249 248 248 246 246 244 245 249 257 259 257 267 254 255 263 266 264 264 269 264 265 263 265 263 260 258
250 249 249 247 246 244 243 244 245 246 248 247 245 246 246 246 244 244 245 253 255 258 253 253 258 266 256 264 266 262 261 262 265 266 265 258 253 251
250 248 247 246 247 246 246 244 244 243 244 245 245 244 243 245 247 246 247 251 247 255 248 255 257 263 273 260 266 268 265 265 265 263 259 253 248 247
245 246 246 246 245 244 243 242 244 245 244 247 246 246 244 241 240 241 237 242 246 254 257 254 250 247 263 263 264 260 259 255 249 244 243 238 235 237
243 243 241 240 242 239 241 242 242 243 244 245 246 245 241 242 239 236 232 236 244 241 242 250 258 255 246 248 248 249 238 219 218 229 238 242 242 245
240 240 239 237 235 234 233 235 236 239 242 245 243 236 234 234 231 232 232 233 235 237 246 240 238 235 233 228 223 221 218 227 247 265 266 264 264 261
232 233 237 236 231 231 231 232 235 237 239 238 234 228 230 231 233 233 232 237 233 232 225 224 219 214 207 206 210 232 249 259 263 262 264 261 256 253
Height
3111 3116 3121 3126 3130 3135 3139 3144 3147 3148 3152 3155 3157 3160 3162 3164 3167 3167 3169 3171 3171 3173 3174 3175 3176 3177 3178 3179 3179 3179 3178 3178 3177 3177 3176 3175 3173 3171
3101 3105 3110 3116 3121 3125 3128 3131 3134 3138 3140 3144 3149 3151 3153 3155 3158 3159 3161 3163 3163 3164 3164 3165 3167 3168 3169 3171 3171 3171 3170 3169 3169 3169 3169 3167 3165 3164
3087 3094 3099 3105 3110 3114 3118 3121 3123 3126 3129 3134 3137 3140 3143 3146 3148 3150 3151 3154 3156 3156 3157 3157 3158 3160 3162 3162 3162 3162 3161 3161 3161 3161 3160 3158 3157 3156
3074 3081 3088 3093 3098 3102 3106 3111 3114 3117 3120 3125 3128 3132 3135 3139 3140 3141 3142 3144 3146 3147 3148 3148 3149 3151 3151 3152 3153 3152 3152 3152 3152 3151 3150 3150 3148 3148
3063 3068 3075 3079 3085 3091 3094 3099 3105 3106 3108 3114 3117 3120 3123 3125 3128 3131 3134 3135 3136 3137 3139 3140 3141 3139 3139 3141 3141 3141 3141 3140 3141 3140 3140 3138 3138 3137
3055 3054 3056 3063 3071 3076 3082 3087 3089 3093 3095 3099 3105 3106 3110 3114 3115 3119 3120 3124 3126 3127 3128 3129 3129 3128 3128 3129 3130 3129 3130 3129 3130 3130 3128 3128 3129 3128
3044 3039 3048 3055 3058 3060 3070 3066 3067 3077 3070 3085 3085 3092 3094 3100 3104 3108 3108 3111 3113 3113 3114 3115 3116 3115 3116 3115 3117 3115 3115 3116 3113 3115 3115 3116 3115 3117
3034 3037 3040 3042 3048 3046 3053 3058 3064 3065 3067 3072 3072 3071 3076 3084 3083 3090 3095 3097 3097 3102 3100 3100 3100 3101 3102 3104 3106 3104 3105 3103 3104 3102 3103 3104 3105 3106
3023 3028 3029 3031 3035 3038 3042 3048 3051 3054 3057 3060 3060 3063 3067 3078 3078 3078 3083 3081 3085 3083 3087 3086 3088 3089 3090 3091 3091 3091 3091 3090 3089 3088 3091 3093 3094 3095
3014 3017 3020 3024 3028 3030 3034 3038 3041 3043 3046 3048 3051 3055 3059 3064 3066 3069 3072 3073 3071 3073 3075 3075 3078 3079 3077 3077 3078 3078 3077 3077 3077 3078 3079 3081 3085 3086
3004 3006 3009 3014 3017 3019 3022 3025 3029 3030 3035 3039 3043 3046 3048 3052 3056 3057 3058 3059 3060 3062 3063 3063 3065 3066 3063 3064 3065 3066 3064 3065 3066 3069 3070 3071 3073 3076
2993 2995 2999 3004 3006 3009 3012 3015 3016 3021 3025 3027 3030 3033 3037 3039 3041 3044 3047 3047 3049 3049 3054 3052 3053 3053 3050 3052 3054 3055 3057 3055 3056 3058 3060 3061 3065 3065
2980 2983 2987 2991 2995 2997 3001 3004 3007 3012 3015 3016 3018 3022 3026 3027 3029 3033 3035 3039 3039 3041 3043 3041 3041 3041 3039 3041 3045 3046 3046 3048 3046 3049 3051 3054 3056 3056
2971 2973 2975 2978 2982 2985 2987 2991 2995 2998 3002 3004 3006 3009 3013 3016 3020 3022 3025 3028 3028 3031 3030 3030 3030 3031 3031 3031 3034 3036 3038 3039 3039 3040 3041 3043 3045 3047
2961 2963 2965 2968 2970 2974 2975 2978 2982 2986 2989 2991 2994 2998 3001 3003 3007 3010 3012 3013 3016 3017 3019 3020 3020 3021 3021 3021 3023 3024 3025 3028 3029 3031 3032 3035 3036 3035
2948 2951 2952 2956 2961 2963 2965 2967 2971 2974 2975 2979 2983 2987 2989 2992 2991 2995 2999 3004 3004 3005 3007 3007 3008 3010 3011 3014 3014 3013 3014 3017 3018 3020 3022 3024 3024 3025
2930 2935 2940 2944 2945 2948 2954 2957 2960 2962 2964 2965 2970 2975 2979 2981 2982 2981 2987 2989 2994 2996 3000 2999 3001 3002 3002 3006 3006 3005 3002 3005 3005 3008 3010 3013 3013 3014
2914 2918 2923 2929 2933 2937 2939 2943 2948 2950 2954 2958 2957 2961 2964 2969 2971 2970 2974 2979 2981 2984 2989 2989 2991 2994 2994 2996 2996 2995 2996 2993 2994 2994 2996 2999 3001 3002
2897 2903 2908 2915 2920 2924 2926 2931 2936 2941 2943 2946 2948 2949 2953 2956 2959 2958 2962 2967 2973 2974 2979 2980 2981 2984 2987 2987 2988 2987 2986 2985 2985 2986 2986 2988 2992 2996
2879 2886 2894 2902 2907 2910 2912 2917 2921 2927 2926 2933 2933 2936 2939 2945 2942 2948 2953 2956 2960 2967 2970 2972 2972 2974 2976 2981 2979 2978 2977 2977 2978 2979 2981 2981 2985 2987
2866 2871 2879 2886 2894 2897 2901 2905 2907 2907 2914 2918 2919 2923 2927 2932 2929 2939 2942 2948 2949 2956 2958 2962 2966 2967 2967 2969 2970 2970 2972 2972 2975 2976 2977 2979 2981 2983
2852 2859 2866 2873 2878 2884 2888 2892 2893 2898 2900 2903 2907 2913 2916 2917 2920 2928 2938 2935 2942 2947 2948 2950 2956 2959 2958 2960 2964 2967 2969 2969 2970 2975 2976 2979 2979 2981
2838 2848 2854 2861 2865 2870 2875 2878 2883 2886 2886 2890 2896 2903 2908 2909 2908 2917 2927 2927 2930 2938 2938 2941 2948 2952 2952 2958 2960 2964 2964 2966 2966 2969 2970 2973 2975 2976